Baltimore, MD

7:47 PM EST on February 23, 2018 (GMT -0500)
Baltimore-Washington International

Weather History for KBWI - April, 2013

Change the Weather History Date:

Wednesday, April 10, 2013

  Actual Average Record
Temperature  
Mean Temperature 78 °F 52 °F  
Max Temperature 91 °F 63 °F 91 °F (2013)
Min Temperature 64 °F 41 °F 22 °F (1985)
Degree Days  
Heating Degree Days 0 13  
Month to date heating degree days 139 148  
Since 1 July heating degree days 4180 4409  
Cooling Degree Days 13 0  
Month to date cooling degree days 21 0  
Year to date cooling degree days 21 1  
Growing Degree Days 28 (Base 50)    
Moisture  
Dew Point 51 °F    
Average Humidity 44    
Maximum Humidity 63    
Minimum Humidity 24    
Precipitation  
Precipitation 0.00 in 0.10 in 1.27 in (1894)
Month to date precipitation 0.15 1.14  
Year to date precipitation 8.38 10.99  
Snow  
Snow 0.00 in 0.00 in 3.00 in (1894)
Month to date snowfall T 0.0  
Since 1 July snowfall 8.0 20.1  
Snow Depth 0.00 in    
Sea Level Pressure  
Sea Level Pressure 29.87 in    
Wind  
Wind Speed 8 mph (SW)    
Max Wind Speed 20 mph    
Max Gust Speed 26 mph    
Visibility 10 miles    
Events      
T = Trace of Precipitation, MM = Missing Value Source: NWS Daily Summary

Daily Weather History Graph

Daily Weather History Graph

Search for Another Location

Airport or City:

Trip Planner

Search our weather history database for the weather conditions in past years. The results will help you decide how hot, cold, wet, or windy it might be!

Date:

Astronomy

Apr. 10, 2013 Rise Set
Actual Time 6:36 AM EDT 7:39 PM EDT
Civil Twilight 6:09 AM EDT 8:06 PM EDT
Nautical Twilight 5:36 AM EDT 8:39 PM EDT
Astronomical Twilight 5:03 AM EDT 9:13 PM EDT
Moon 6:32 AM EDT (4/10) 8:12 PM EDT (4/10)
Length of Visible Light 13h 57m
Length of Day
13h 02m
New Moon, 0% of the Moon is Illuminated
Apr 10
New Moon
Apr 18
First Quarter
Apr 25
Full
May 2
Last Quarter
May 9
New

Hourly Weather History & Observations

Time (EDT) Temp. Heat Index Dew Point Humidity Pressure Visibility Wind Dir Wind Speed Gust Speed Precip Events Conditions
12:54 AM 66.9 °F - 51.1 °F 57% 29.90 in 10.0 mi Calm Calm - N/A   Partly Cloudy
1:54 AM 71.1 °F - 50.0 °F 47% 29.90 in 10.0 mi WSW 4.6 mph - N/A   Partly Cloudy
2:54 AM 70.0 °F - 50.0 °F 49% 29.88 in 10.0 mi WSW 4.6 mph - N/A   Partly Cloudy
3:54 AM 68.0 °F - 50.0 °F 52% 29.90 in 10.0 mi WSW 3.5 mph - N/A   Clear
4:54 AM 66.0 °F - 51.1 °F 59% 29.91 in 10.0 mi WSW 4.6 mph - N/A   Clear
5:54 AM 64.9 °F - 51.1 °F 61% 29.92 in 10.0 mi West 8.1 mph - N/A   Partly Cloudy
6:54 AM 64.9 °F - 51.1 °F 61% 29.93 in 10.0 mi West 8.1 mph - N/A   Scattered Clouds
7:54 AM 70.0 °F - 51.1 °F 51% 29.95 in 10.0 mi WSW 5.8 mph - N/A   Scattered Clouds
8:54 AM 73.9 °F - 52.0 °F 46% 29.94 in 10.0 mi SW 5.8 mph - N/A   Mostly Cloudy
9:54 AM 79.0 °F - 50.0 °F 36% 29.94 in 10.0 mi WSW 8.1 mph - N/A   Mostly Cloudy
10:54 AM 82.9 °F 81.8 °F 53.1 °F 36% 29.93 in 10.0 mi West 19.6 mph 26.5 mph N/A   Scattered Clouds
11:54 AM 84.9 °F 83.3 °F 54.0 °F 34% 29.92 in 10.0 mi West 12.7 mph 23.0 mph N/A   Mostly Cloudy
12:54 PM 87.8 °F 85.7 °F 53.6 °F 31% 29.90 in 10.0 mi West 13.8 mph 21.9 mph N/A   Scattered Clouds
1:54 PM 88.0 °F - 52.0 °F 29% 29.88 in 10.0 mi West 15.0 mph 23.0 mph N/A   Scattered Clouds
2:54 PM 90.0 °F - 52.0 °F 27% 29.86 in 10.0 mi SSW 5.8 mph 18.4 mph N/A   Scattered Clouds
3:54 PM 89.1 °F - 52.0 °F 28% 29.83 in 10.0 mi WSW 8.1 mph - N/A   Scattered Clouds
4:54 PM 90.0 °F - 50.0 °F 25% 29.82 in 10.0 mi SSW 10.4 mph 18.4 mph N/A   Mostly Cloudy
5:54 PM 89.1 °F - 48.9 °F 25% 29.80 in 10.0 mi SSW 11.5 mph - N/A   Mostly Cloudy
6:54 PM 87.1 °F - 48.9 °F 27% 29.78 in 10.0 mi SSW 5.8 mph - N/A   Mostly Cloudy
7:54 PM 81.0 °F - 52.0 °F 36% 29.77 in 10.0 mi SSE 4.6 mph - N/A   Mostly Cloudy
8:54 PM 78.1 °F - 52.0 °F 40% 29.77 in 10.0 mi South 3.5 mph - N/A   Mostly Cloudy
9:54 PM 73.9 °F - 53.1 °F 48% 29.79 in 10.0 mi Calm Calm - N/A   Mostly Cloudy
10:54 PM 77.0 °F - 52.0 °F 42% 29.79 in 10.0 mi SW 3.5 mph - N/A   Mostly Cloudy
11:54 PM 75.9 °F - 54.0 °F 46% 29.83 in 10.0 mi Variable 3.5 mph - N/A   Mostly Cloudy